Location: Newark
(47.4833°N, 7.5167°E)
Time: 09:49:40
(UTC+00:00)

OTV 5 (USA 277) - Visible Passes

Search period start: 23 October 2019 00:00
Search period end: 02 November 2019 00:00
Orbit: 310 x 324 km, 54.5° (Epoch: 17 October)

Date Brightness Start Highest point End Pass type
(mag) Time Alt. Az. Time Alt. Az. Time Alt. Az.
28 Oct ? 18:38:35 10° SW 18:38:40 11° SW 18:38:40 11° SW visible
29 Oct ? 17:20:03 10° S 17:21:48 16° SE 17:22:16 15° ESE visible
29 Oct ? 18:53:07 10° WSW 18:53:10 10° WSW 18:53:10 10° WSW visible
30 Oct ? 17:33:37 10° SSW 17:36:10 36° SE 17:36:39 32° ESE visible
31 Oct ? 17:47:55 10° WSW 17:50:39 89° SSE 17:50:56 68° ENE visible
01 Nov ? 18:02:37 10° W 18:05:08 42° NNW 18:05:08 42° NNW visible
